THY9EB LTFM-LIPE

Flight info

Callsign THY9EB
Flight time N/A
Altitude 34000
Route VADEN1D/35L VADEN N618 BAKLO DCT ROVAM DCT DOLAP DCT OBAGI DCT SOSEK DCT BOSNA DCT NAVSU DCT DEPET DCT PUL DCT BASOG DCT ARVOD P125 BAMEK
Aircraft A321/M-SDE3FGHIRWY/LB1

Departure

Time 2026-05-07 14:10
Airport İstanbul Airport (LTFM)

Arrival

Time N/A
Airport Bologna Guglielmo Marconi Airport (LIPE)
Time Latitude Longitude Altitude Speed Heading
2026-05-07 13:45 41.26647 28.73751 333 ft 0 kts 272°
2026-05-07 13:57 41.26646 28.73781 330 ft 4 kts 276°
2026-05-07 13:57 41.26642 28.73816 329 ft 4 kts 283°
2026-05-07 13:57 41.26634 28.73850 330 ft 4 kts 298°
2026-05-07 13:57 41.26619 28.73876 331 ft 4 kts 342°
2026-05-07 13:58 41.26611 28.73878 332 ft 0 kts 360°
2026-05-07 14:01 41.26614 28.73878 331 ft 1 kts
2026-05-07 14:01 41.26630 28.73878 332 ft 4 kts
2026-05-07 14:01 41.26665 28.73878 332 ft 6 kts 359°
2026-05-07 14:02 41.26718 28.73877 332 ft 9 kts 359°
2026-05-07 14:02 41.26788 28.73875 330 ft 11 kts 359°
2026-05-07 14:02 41.26872 28.73873 329 ft 13 kts 359°
2026-05-07 14:02 41.26962 28.73871 332 ft 12 kts 359°
2026-05-07 14:03 41.27030 28.73859 331 ft 9 kts 331°
2026-05-07 14:03 41.27051 28.73784 334 ft 9 kts 270°
2026-05-07 14:03 41.27050 28.73695 333 ft 10 kts 269°
2026-05-07 14:03 41.27048 28.73597 334 ft 11 kts 269°
2026-05-07 14:04 41.27047 28.73490 333 ft 12 kts 269°
2026-05-07 14:04 41.27046 28.73376 329 ft 13 kts 269°
2026-05-07 14:04 41.27044 28.73253 332 ft 14 kts 269°
2026-05-07 14:04 41.27043 28.73151 334 ft 11 kts 269°
2026-05-07 14:05 41.27042 28.73057 334 ft 8 kts 268°
2026-05-07 14:05 41.27022 28.72998 331 ft 6 kts 221°
2026-05-07 14:05 41.26984 28.72986 332 ft 5 kts 181°
2026-05-07 14:05 41.26946 28.72987 332 ft 6 kts 179°
2026-05-07 14:06 41.26894 28.72988 330 ft 9 kts 179°
2026-05-07 14:06 41.26828 28.72989 332 ft 10 kts 179°
2026-05-07 14:06 41.26766 28.72991 331 ft 9 kts 180°
2026-05-07 14:06 41.26723 28.72958 331 ft 5 kts 240°
2026-05-07 14:07 41.26719 28.72940 334 ft 1 kts 258°
2026-05-07 14:07 41.26718 28.72934 331 ft 0 kts 265°
2026-05-07 14:07 41.26718 28.72932 334 ft 1 kts 265°
2026-05-07 14:07 41.26717 28.72908 330 ft 5 kts 266°
2026-05-07 14:08 41.26716 28.72820 332 ft 12 kts 269°
2026-05-07 14:08 41.26714 28.72699 333 ft 14 kts 269°
2026-05-07 14:08 41.26713 28.72576 329 ft 11 kts 269°
2026-05-07 14:08 41.26751 28.72515 334 ft 9 kts 350°
2026-05-07 14:09 41.26822 28.72513 334 ft 12 kts 359°
2026-05-07 14:09 41.27091 28.72507 333 ft 75 kts 359°
2026-05-07 14:09 41.27846 28.72488 332 ft 139 kts 359°
2026-05-07 14:09 41.28973 28.72457 435 ft 177 kts 360°
2026-05-07 14:10 41.30195 28.72422 1125 ft 175 kts
2026-05-07 14:10 41.31410 28.72426 1794 ft 175 kts
2026-05-07 14:10 41.32685 28.72452 2115 ft 192 kts
2026-05-07 14:10 41.34103 28.72476 2319 ft 216 kts
2026-05-07 14:11 41.35695 28.72497 2484 ft 243 kts
2026-05-07 14:11 41.37440 28.72288 2913 ft 260 kts 340°
2026-05-07 14:11 41.38932 28.70918 3562 ft 266 kts 307°
2026-05-07 14:11 41.39927 28.68821 4343 ft 269 kts 300°
2026-05-07 14:12 41.40889 28.66678 5184 ft 270 kts 300°
2026-05-07 14:12 41.41847 28.64550 5978 ft 272 kts 300°
2026-05-07 14:12 41.42825 28.62382 6776 ft 274 kts 301°
2026-05-07 14:12 41.43811 28.60198 7548 ft 276 kts 301°
2026-05-07 14:13 41.44806 28.57992 8291 ft 279 kts 301°
2026-05-07 14:13 41.45811 28.55760 9027 ft 282 kts 301°
2026-05-07 14:13 41.46827 28.53501 9731 ft 286 kts 301°
2026-05-07 14:13 41.47857 28.51205 10294 ft 296 kts 301°
2026-05-07 14:14 41.48954 28.48758 10457 ft 319 kts 301°
2026-05-07 14:14 41.50133 28.46132 10593 ft 342 kts 301°
2026-05-07 14:14 41.51389 28.43334 10800 ft 359 kts 301°
2026-05-07 14:14 41.52667 28.40483 11338 ft 365 kts 301°
2026-05-07 14:15 41.53978 28.37556 11975 ft 369 kts 301°
2026-05-07 14:15 41.55301 28.34598 12615 ft 373 kts 301°
2026-05-07 14:15 41.56636 28.31613 13257 ft 376 kts 301°